Гвардейское

Украина / Днепропетровская область     48˚44′04″N   35˚19′44″E
темп.,
°C
ветер,
м/с
пор.,
м/с
влажн.,
%
обл.,
%
осадки,
мм/ч
давл.,
гПа
погр.,
м
6 декабря, вс
вс623:00−3˚в713440 0.0 1035429
02:00−4˚в713430 0.0 1035398
05:00−5˚в713460 0.0 1035392
08:00−5˚в613470 0.0 1035437
11:00−2˚в712410 0.0 1035559
14:00−1˚в711500 0.0 1034616
17:00−4˚в713560 0.0 1035524
20:00−5˚в714620 0.0 1035531
7 декабря, пн
пн723:00−6˚в714650 0.0 1035539
02:00−6˚в713630 0.0 1035516
05:00−7˚в714620 0.0 1034515
08:00−7˚в816590 0.0 1034588
11:00−3˚в814440 0.0 1033701
14:00−1˚в813390 0.0 1032758
17:00−4˚в815480 0.0 1032564
20:00−5˚в815540 0.0 1032555
8 декабря, вт
вт823:00−6˚в814600 0.0 1032522
02:00−6˚в714610 0.0 1031517
05:00−6˚в714640 0.0 1030538
08:00−6˚в715640 0.0 1030598
11:00−2˚в813540 0.0 1029744
14:00в813500 0.0 1028855
17:00−3˚в814530 0.0 1028501
20:00−4˚в714530 0.0 1029561
9 декабря, ср
ср923:00−4˚в613620 0.0 1029564
02:00−5˚в713663 0.0 1029535
05:00−5˚в613692 0.0 1029510
08:00−5˚в7137134 0.0 1029524
11:00−1˚вюв7116649 0.0 1029626
14:00+1˚в6116764 0.0 1028660
17:00−1˚в6127583 0.0 1029568
20:00−2˚в6137450 0.0 1029517
10 декабря, чт
чт1023:00−3˚вюв513814 0.0 1029485
02:00−2˚вюв5128330 0.0 1030458
05:00−3˚вюв6128219 0.0 1029412
08:00−3˚вюв5118619 0.0 1030425
11:00вюв7117228 0.0 1030518
14:00+3˚вюв6116614 0.0 1029609
17:00вюв513770 0.0 1029411
20:00−2˚вюв614700 0.0 1029464